Time,TemperatureF,DewpointF,PressureIn,WindDirection,WindDirectionDegrees,WindSpeedMPH,WindSpeedGustMPH,Humidity,HourlyPrecipIn,Conditions,Clouds,dailyrainin,SolarRadiationWatts/m^2,SoftwareType,DateUTC
2013-02-18 00:01:00,47.8,21.6,29.99,WNW,297,1.0,4.0,35,0.00,,,0.00,0.0,meteohub,2013-02-18 07:01:00,
2013-02-18 00:06:00,47.7,21.4,29.99,WNW,297,0.0,4.0,35,0.00,,,0.00,0.0,meteohub,2013-02-18 07:06:00,
2013-02-18 00:11:00,46.9,22.6,29.99,WNW,297,1.0,3.0,38,0.00,,,0.00,0.0,meteohub,2013-02-18 07:11:00,
2013-02-18 00:16:00,46.2,21.9,30.00,WNW,297,1.0,3.0,38,0.00,,,0.00,0.0,meteohub,2013-02-18 07:16:00,
2013-02-18 00:21:00,46.0,22.5,30.00,WNW,297,0.0,2.0,39,0.00,,,0.00,0.0,meteohub,2013-02-18 07:21:00,
2013-02-18 00:26:00,45.7,22.8,30.00,WNW,297,0.0,2.0,40,0.00,,,0.00,0.0,meteohub,2013-02-18 07:26:00,
2013-02-18 00:31:00,45.1,22.8,30.00,WNW,297,1.0,2.0,41,0.00,,,0.00,0.0,meteohub,2013-02-18 07:31:00,
2013-02-18 00:36:00,45.0,22.1,30.00,WNW,297,1.0,1.0,40,0.00,,,0.00,0.0,meteohub,2013-02-18 07:36:00,
2013-02-18 00:41:00,44.6,23.5,30.00,WNW,297,1.0,1.0,43,0.00,,,0.00,0.0,meteohub,2013-02-18 07:41:00,
2013-02-18 00:46:00,44.1,23.0,30.00,WNW,297,1.0,1.0,43,0.00,,,0.00,0.0,meteohub,2013-02-18 07:46:00,
2013-02-18 00:51:00,43.2,23.7,30.00,WNW,297,0.0,1.0,46,0.00,,,0.00,0.0,meteohub,2013-02-18 07:51:00,
2013-02-18 00:56:00,42.4,22.6,30.00,WNW,297,1.0,1.0,45,0.00,,,0.00,0.0,meteohub,2013-02-18 07:56:00,
2013-02-18 01:01:00,41.5,23.4,30.00,WNW,297,1.0,1.0,48,0.00,,,0.00,0.0,meteohub,2013-02-18 08:01:00,
2013-02-18 01:06:00,40.8,24.1,30.01,WNW,297,0.0,1.0,51,0.00,,,0.00,0.0,meteohub,2013-02-18 08:06:00,
2013-02-18 01:11:00,40.6,23.5,30.01,WNW,297,0.0,1.0,50,0.00,,,0.00,0.0,meteohub,2013-02-18 08:11:00,
2013-02-18 01:16:00,40.5,24.6,30.01,WNW,297,0.0,1.0,53,0.00,,,0.00,0.0,meteohub,2013-02-18 08:16:00,
2013-02-18 01:21:00,40.3,24.4,30.01,WNW,297,0.0,1.0,53,0.00,,,0.00,0.0,meteohub,2013-02-18 08:21:00,
2013-02-18 01:26:00,39.7,23.5,30.01,WNW,297,1.0,1.0,52,0.00,,,0.00,0.0,meteohub,2013-02-18 08:26:00,
2013-02-18 01:31:00,39.7,23.5,30.01,WNW,297,1.0,1.0,52,0.00,,,0.00,0.0,meteohub,2013-02-18 08:31:00,
2013-02-18 01:36:00,39.7,25.0,30.01,WNW,297,0.0,1.0,55,0.00,,,0.00,0.0,meteohub,2013-02-18 08:36:00,
2013-02-18 01:41:00,39.6,24.3,30.01,WNW,297,0.0,1.0,54,0.00,,,0.00,0.0,meteohub,2013-02-18 08:41:00,
2013-02-18 01:46:00,39.6,23.9,30.01,WNW,297,1.0,1.0,53,0.00,,,0.00,0.0,meteohub,2013-02-18 08:46:00,
2013-02-18 01:51:00,39.6,24.8,30.01,WNW,297,0.0,1.0,55,0.00,,,0.00,0.0,meteohub,2013-02-18 08:51:00,
2013-02-18 01:56:00,39.4,24.1,30.01,WNW,297,0.0,1.0,54,0.00,,,0.00,0.0,meteohub,2013-02-18 08:56:00,
2013-02-18 02:01:00,39.4,24.6,30.01,WNW,297,0.0,1.0,55,0.00,,,0.00,0.0,meteohub,2013-02-18 09:01:00,
2013-02-18 02:06:00,39.2,23.9,30.01,WNW,297,1.0,1.0,54,0.00,,,0.00,0.0,meteohub,2013-02-18 09:06:00,
2013-02-18 02:11:00,38.8,24.1,30.01,WNW,297,1.0,2.0,55,0.00,,,0.00,0.0,meteohub,2013-02-18 09:11:00,
2013-02-18 02:16:00,38.7,23.9,30.01,WNW,297,0.0,2.0,55,0.00,,,0.00,0.0,meteohub,2013-02-18 09:16:00,
2013-02-18 02:21:00,38.7,24.8,30.01,WNW,297,0.0,2.0,57,0.00,,,0.00,0.0,meteohub,2013-02-18 09:21:00,
2013-02-18 02:26:00,38.5,24.1,30.01,WNW,297,0.0,1.0,56,0.00,,,0.00,0.0,meteohub,2013-02-18 09:26:00,
2013-02-18 02:31:00,38.3,25.2,30.01,WNW,297,1.0,1.0,59,0.00,,,0.00,0.0,meteohub,2013-02-18 09:31:00,
2013-02-18 02:36:00,38.1,24.6,30.01,WNW,297,0.0,1.0,58,0.00,,,0.00,0.0,meteohub,2013-02-18 09:36:00,
2013-02-18 02:41:00,38.1,25.0,30.02,WNW,297,0.0,1.0,59,0.00,,,0.00,0.0,meteohub,2013-02-18 09:41:00,
2013-02-18 02:46:00,37.9,24.1,30.02,WNW,297,1.0,1.0,57,0.00,,,0.00,0.0,meteohub,2013-02-18 09:46:00,
2013-02-18 02:51:00,37.9,24.4,30.02,WNW,297,0.0,1.0,58,0.00,,,0.00,0.0,meteohub,2013-02-18 09:51:00,
2013-02-18 02:56:00,37.9,25.0,30.02,WNW,297,0.0,1.0,59,0.00,,,0.00,0.0,meteohub,2013-02-18 09:56:00,
2013-02-18 03:01:00,38.1,24.3,30.02,WNW,297,1.0,1.0,57,0.00,,,0.00,0.0,meteohub,2013-02-18 10:01:00,
2013-02-18 03:07:00,38.5,25.0,30.02,WNW,297,1.0,2.0,58,0.00,,,0.00,0.0,meteohub,2013-02-18 10:07:00,
2013-02-18 03:12:00,38.5,24.1,30.02,WNW,297,1.0,2.0,56,0.00,,,0.00,0.0,meteohub,2013-02-18 10:12:00,
2013-02-18 03:17:00,38.8,24.1,30.02,WNW,297,1.0,2.0,55,0.00,,,0.00,0.0,meteohub,2013-02-18 10:17:00,
2013-02-18 03:22:00,39.0,24.6,30.02,WNW,297,0.0,2.0,56,0.00,,,0.00,0.0,meteohub,2013-02-18 10:22:00,
2013-02-18 03:27:00,39.2,24.4,30.02,WNW,297,0.0,1.0,55,0.00,,,0.00,0.0,meteohub,2013-02-18 10:27:00,
2013-02-18 03:32:00,39.0,23.7,30.02,WNW,297,1.0,1.0,54,0.00,,,0.00,0.0,meteohub,2013-02-18 10:32:00,
2013-02-18 03:37:00,38.8,24.4,30.02,WNW,297,0.0,2.0,56,0.00,,,0.00,0.0,meteohub,2013-02-18 10:37:00,
2013-02-18 03:42:00,38.7,24.3,30.02,WNW,297,1.0,2.0,56,0.00,,,0.00,0.0,meteohub,2013-02-18 10:42:00,
2013-02-18 03:47:00,38.5,24.6,30.02,WNW,297,0.0,2.0,57,0.00,,,0.00,0.0,meteohub,2013-02-18 10:47:00,
2013-02-18 03:52:00,37.9,24.1,30.02,WNW,297,1.0,2.0,57,0.00,,,0.00,0.0,meteohub,2013-02-18 10:52:00,
2013-02-18 03:57:00,37.8,24.8,30.02,WNW,297,1.0,1.0,59,0.00,,,0.00,0.0,meteohub,2013-02-18 10:57:00,
2013-02-18 04:02:00,37.6,24.6,30.02,WNW,297,0.0,1.0,59,0.00,,,0.00,0.0,meteohub,2013-02-18 11:02:00,
2013-02-18 04:07:00,37.4,25.2,30.02,WNW,297,0.0,1.0,61,0.00,,,0.00,0.0,meteohub,2013-02-18 11:07:00,
2013-02-18 04:12:00,37.0,24.8,30.02,WNW,297,1.0,1.0,61,0.00,,,0.00,0.0,meteohub,2013-02-18 11:12:00,
2013-02-18 04:17:00,37.0,24.8,30.02,WNW,297,1.0,1.0,61,0.00,,,0.00,0.0,meteohub,2013-02-18 11:17:00,
2013-02-18 04:22:00,36.9,25.0,30.02,WNW,297,0.0,1.0,62,0.00,,,0.00,0.0,meteohub,2013-02-18 11:22:00,
2013-02-18 04:27:00,36.7,24.1,30.02,WNW,297,1.0,2.0,60,0.00,,,0.00,0.0,meteohub,2013-02-18 11:27:00,
2013-02-18 04:32:00,36.3,24.6,30.02,WNW,297,1.0,2.0,62,0.00,,,0.00,0.0,meteohub,2013-02-18 11:32:00,
2013-02-18 04:38:00,36.3,24.6,30.02,WNW,297,0.0,2.0,62,0.00,,,0.00,0.0,meteohub,2013-02-18 11:38:00,
2013-02-18 04:43:00,36.3,24.1,30.03,WNW,297,0.0,2.0,61,0.00,,,0.00,0.0,meteohub,2013-02-18 11:43:00,
2013-02-18 04:48:00,36.3,25.0,30.03,WNW,297,0.0,1.0,63,0.00,,,0.00,0.0,meteohub,2013-02-18 11:48:00,
2013-02-18 04:53:00,36.3,24.6,30.04,WNW,297,0.0,1.0,62,0.00,,,0.00,0.0,meteohub,2013-02-18 11:53:00,
2013-02-18 04:58:00,36.3,24.6,30.04,WNW,297,0.0,1.0,62,0.00,,,0.00,0.0,meteohub,2013-02-18 11:58:00,
2013-02-18 05:03:00,36.3,25.0,30.04,WNW,297,1.0,1.0,63,0.00,,,0.00,0.0,meteohub,2013-02-18 12:03:00,
2013-02-18 05:08:00,36.0,25.3,30.04,WNW,297,1.0,2.0,65,0.00,,,0.00,0.0,meteohub,2013-02-18 12:08:00,
2013-02-18 05:13:00,35.6,25.0,30.04,WNW,297,1.0,2.0,65,0.00,,,0.00,0.0,meteohub,2013-02-18 12:13:00,
2013-02-18 05:18:00,35.4,25.2,30.04,WNW,297,0.0,2.0,66,0.00,,,0.00,0.0,meteohub,2013-02-18 12:18:00,
2013-02-18 05:23:00,35.2,24.3,30.04,WNW,297,0.0,2.0,64,0.00,,,0.00,0.0,meteohub,2013-02-18 12:23:00,
2013-02-18 05:28:00,35.2,24.3,30.04,WNW,297,0.0,2.0,64,0.00,,,0.00,0.0,meteohub,2013-02-18 12:28:00,
2013-02-18 05:33:00,35.2,24.6,30.04,WNW,297,0.0,1.0,65,0.00,,,0.00,0.0,meteohub,2013-02-18 12:33:00,
2013-02-18 05:38:00,35.1,24.8,30.04,WNW,297,0.0,1.0,66,0.00,,,0.00,0.0,meteohub,2013-02-18 12:38:00,
2013-02-18 05:43:00,35.2,25.0,30.04,WNW,297,1.0,1.0,66,0.00,,,0.00,0.0,meteohub,2013-02-18 12:43:00,
2013-02-18 05:48:00,35.1,23.7,30.04,WNW,297,0.0,2.0,63,0.00,,,0.00,0.0,meteohub,2013-02-18 12:48:00,
2013-02-18 05:53:00,35.2,24.3,30.04,WNW,297,0.0,2.0,64,0.00,,,0.00,0.0,meteohub,2013-02-18 12:53:00,
2013-02-18 05:58:00,35.4,24.8,30.04,WNW,297,0.0,2.0,65,0.00,,,0.00,0.0,meteohub,2013-02-18 12:58:00,
2013-02-18 06:03:00,35.6,25.0,30.04,WNW,297,0.0,1.0,65,0.00,,,0.00,0.0,meteohub,2013-02-18 13:03:00,
2013-02-18 06:08:00,35.4,24.4,30.04,WNW,297,1.0,1.0,64,0.00,,,0.00,0.0,meteohub,2013-02-18 13:08:00,
2013-02-18 06:13:00,35.2,23.9,30.04,WNW,297,1.0,1.0,63,0.00,,,0.00,0.0,meteohub,2013-02-18 13:13:00,
2013-02-18 06:18:00,34.9,23.9,30.05,WNW,297,0.0,2.0,64,0.00,,,0.00,0.0,meteohub,2013-02-18 13:18:00,
2013-02-18 06:23:00,34.9,24.3,30.05,WNW,297,0.0,2.0,65,0.00,,,0.00,0.0,meteohub,2013-02-18 13:23:00,
2013-02-18 06:28:00,35.1,23.7,30.04,WNW,297,0.0,2.0,63,0.00,,,0.00,0.0,meteohub,2013-02-18 13:28:00,
2013-02-18 06:33:00,35.1,24.4,30.04,WNW,297,0.0,2.0,65,0.00,,,0.00,0.0,meteohub,2013-02-18 13:33:00,
2013-02-18 06:38:00,35.1,23.7,30.05,WNW,297,0.0,2.0,63,0.00,,,0.00,0.0,meteohub,2013-02-18 13:38:00,
2013-02-18 06:43:00,35.1,24.1,30.05,WNW,297,2.0,2.0,64,0.00,,,0.00,0.0,meteohub,2013-02-18 13:43:00,
2013-02-18 06:48:00,35.1,24.4,30.05,WNW,297,0.0,2.0,65,0.00,,,0.00,0.0,meteohub,2013-02-18 13:48:00,
2013-02-18 06:53:00,34.9,24.6,30.05,WNW,297,0.0,2.0,66,0.00,,,0.00,0.0,meteohub,2013-02-18 13:53:00,
2013-02-18 06:58:00,34.7,23.7,30.06,WNW,297,1.0,2.0,64,0.00,,,0.00,0.0,meteohub,2013-02-18 13:58:00,
2013-02-18 07:03:00,35.1,23.4,30.06,WNW,297,0.0,2.0,62,0.00,,,0.00,5.0,meteohub,2013-02-18 14:03:00,
2013-02-18 07:08:00,35.1,24.8,30.06,WNW,297,1.0,2.0,66,0.00,,,0.00,9.0,meteohub,2013-02-18 14:08:00,
2013-02-18 07:13:00,35.1,23.7,30.06,WNW,297,1.0,2.0,63,0.00,,,0.00,12.0,meteohub,2013-02-18 14:13:00,
2013-02-18 07:18:00,35.4,23.0,30.07,WNW,297,0.0,1.0,60,0.00,,,0.00,16.0,meteohub,2013-02-18 14:18:00,
2013-02-18 07:23:00,36.1,24.1,30.06,WNW,297,1.0,1.0,61,0.00,,,0.00,19.0,meteohub,2013-02-18 14:23:00,
2013-02-18 07:28:00,36.5,24.3,30.07,WNW,297,0.0,2.0,61,0.00,,,0.00,23.0,meteohub,2013-02-18 14:28:00,
2013-02-18 07:33:00,37.0,24.8,30.07,WNW,297,1.0,2.0,61,0.00,,,0.00,25.0,meteohub,2013-02-18 14:33:00,
2013-02-18 07:38:00,37.9,25.7,30.07,WNW,297,1.0,2.0,61,0.00,,,0.00,58.0,meteohub,2013-02-18 14:38:00,
2013-02-18 07:43:00,38.7,25.5,30.07,West,261,2.0,2.0,59,0.00,,,0.00,76.0,meteohub,2013-02-18 14:43:00,
2013-02-18 07:48:00,39.7,25.0,30.08,WSW,246,0.0,2.0,55,0.00,,,0.00,91.0,meteohub,2013-02-18 14:48:00,
2013-02-18 07:53:00,40.8,25.9,30.08,WSW,246,1.0,3.0,55,0.00,,,0.00,114.0,meteohub,2013-02-18 14:53:00,
2013-02-18 07:58:00,42.1,24.8,30.08,WSW,246,0.0,3.0,50,0.00,,,0.00,137.0,meteohub,2013-02-18 14:58:00,
2013-02-18 08:03:00,43.5,26.6,30.08,WSW,246,0.0,2.0,51,0.00,,,0.00,160.0,meteohub,2013-02-18 15:03:00,
2013-02-18 08:08:00,45.1,25.5,30.08,WSW,246,0.0,2.0,46,0.00,,,0.00,181.0,meteohub,2013-02-18 15:08:00,
2013-02-18 08:13:00,46.8,24.3,30.08,WSW,246,1.0,1.0,41,0.00,,,0.00,207.0,meteohub,2013-02-18 15:13:00,
2013-02-18 08:18:00,48.2,24.4,30.08,WSW,246,0.0,2.0,39,0.00,,,0.00,232.0,meteohub,2013-02-18 15:18:00,
2013-02-18 08:23:00,49.3,24.8,30.09,WSW,246,0.0,2.0,38,0.00,,,0.00,248.0,meteohub,2013-02-18 15:23:00,
2013-02-18 08:28:00,50.4,24.4,30.09,WSW,246,0.0,2.0,36,0.00,,,0.00,278.0,meteohub,2013-02-18 15:28:00,
2013-02-18 08:33:00,51.6,24.8,30.09,WSW,246,0.0,2.0,35,0.00,,,0.00,271.0,meteohub,2013-02-18 15:33:00,
2013-02-18 08:39:00,52.5,23.5,30.09,WSW,246,0.0,1.0,32,0.00,,,0.00,287.0,meteohub,2013-02-18 15:39:00,
2013-02-18 08:44:00,53.2,24.1,30.09,WSW,246,0.0,1.0,32,0.00,,,0.00,104.0,meteohub,2013-02-18 15:44:00,
2013-02-18 08:49:00,53.4,23.5,30.09,WSW,246,2.0,2.0,31,0.00,,,0.00,218.0,meteohub,2013-02-18 15:49:00,
2013-02-18 08:54:00,53.4,25.0,30.09,WSW,246,1.0,2.0,33,0.00,,,0.00,206.0,meteohub,2013-02-18 15:54:00,
2013-02-18 08:59:00,53.2,24.8,30.09,WSW,246,1.0,2.0,33,0.00,,,0.00,255.0,meteohub,2013-02-18 15:59:00,
2013-02-18 09:04:00,53.1,26.1,30.09,WSW,246,1.0,2.0,35,0.00,,,0.00,304.0,meteohub,2013-02-18 16:04:00,
2013-02-18 09:09:00,53.1,25.3,30.09,WSW,246,2.0,3.0,34,0.00,,,0.00,237.0,meteohub,2013-02-18 16:09:00,
2013-02-18 09:14:00,53.1,25.3,30.09,WSW,246,2.0,3.0,34,0.00,,,0.00,367.0,meteohub,2013-02-18 16:14:00,
2013-02-18 09:19:00,53.1,25.3,30.09,WSW,246,1.0,3.0,34,0.00,,,0.00,320.0,meteohub,2013-02-18 16:19:00,
2013-02-18 09:24:00,53.4,25.7,30.09,WSW,246,1.0,3.0,34,0.00,,,0.00,336.0,meteohub,2013-02-18 16:24:00,
2013-02-18 09:29:00,54.1,25.7,30.09,WSW,246,1.0,2.0,33,0.00,,,0.00,392.0,meteohub,2013-02-18 16:29:00,
2013-02-18 09:34:00,54.3,24.3,30.09,WSW,245,0.0,3.0,31,0.00,,,0.00,339.0,meteohub,2013-02-18 16:34:00,
2013-02-18 09:39:00,54.9,24.8,30.09,WSW,245,1.0,3.0,31,0.00,,,0.00,345.0,meteohub,2013-02-18 16:39:00,
2013-02-18 09:44:00,55.6,24.6,30.09,WSW,245,2.0,3.0,30,0.00,,,0.00,406.0,meteohub,2013-02-18 16:44:00,
2013-02-18 09:49:00,55.9,24.1,30.09,WSW,245,1.0,2.0,29,0.00,,,0.00,550.0,meteohub,2013-02-18 16:49:00,
2013-02-18 09:54:00,57.0,25.0,30.09,WSW,244,1.0,2.0,29,0.00,,,0.00,431.0,meteohub,2013-02-18 16:54:00,
2013-02-18 09:59:00,57.7,24.8,30.09,WSW,242,2.0,3.0,28,0.00,,,0.00,526.0,meteohub,2013-02-18 16:59:00,
2013-02-18 10:04:00,58.5,24.6,30.09,SW,234,4.0,4.0,27,0.00,,,0.00,608.0,meteohub,2013-02-18 17:04:00,
2013-02-18 10:09:00,58.8,24.1,30.09,SW,222,1.0,4.0,26,0.00,,,0.00,622.0,meteohub,2013-02-18 17:09:00,
2013-02-18 10:14:00,59.2,22.5,30.09,SW,222,1.0,4.0,24,0.00,,,0.00,489.0,meteohub,2013-02-18 17:14:00,
2013-02-18 10:19:00,59.7,23.9,30.09,SW,221,2.0,4.0,25,0.00,,,0.00,392.0,meteohub,2013-02-18 17:19:00,
2013-02-18 10:24:00,59.9,23.9,30.09,WSW,238,3.0,4.0,25,0.00,,,0.00,483.0,meteohub,2013-02-18 17:24:00,
2013-02-18 10:29:00,60.4,24.4,30.09,SW,235,3.0,4.0,25,0.00,,,0.00,515.0,meteohub,2013-02-18 17:29:00,
2013-02-18 10:34:00,61.0,23.9,30.09,West,263,3.0,6.0,24,0.00,,,0.00,724.0,meteohub,2013-02-18 17:34:00,
2013-02-18 10:39:00,61.2,24.1,30.09,WSW,252,2.0,6.0,24,0.00,,,0.00,682.0,meteohub,2013-02-18 17:39:00,
2013-02-18 10:44:00,61.5,22.3,30.09,West,269,2.0,6.0,22,0.00,,,0.00,668.0,meteohub,2013-02-18 17:44:00,
2013-02-18 10:49:00,61.7,20.1,30.09,West,269,2.0,5.0,20,0.00,,,0.00,613.0,meteohub,2013-02-18 17:49:00,
2013-02-18 10:54:00,62.1,21.7,30.09,West,266,1.0,5.0,21,0.00,,,0.00,459.0,meteohub,2013-02-18 17:54:00,
2013-02-18 10:59:00,62.2,19.4,30.09,West,275,3.0,4.0,19,0.00,,,0.00,703.0,meteohub,2013-02-18 17:59:00,
2013-02-18 11:05:00,62.4,17.1,30.09,West,277,2.0,5.0,17,0.00,,,0.00,668.0,meteohub,2013-02-18 18:05:00,
2013-02-18 11:10:00,62.8,18.7,30.09,West,277,0.0,5.0,18,0.00,,,0.00,512.0,meteohub,2013-02-18 18:10:00,
2013-02-18 11:15:00,63.1,17.6,30.09,West,259,2.0,4.0,17,0.00,,,0.00,439.0,meteohub,2013-02-18 18:15:00,
2013-02-18 11:20:00,63.3,17.8,30.09,West,281,3.0,4.0,17,0.00,,,0.00,617.0,meteohub,2013-02-18 18:20:00,
2013-02-18 11:25:00,63.9,18.1,30.09,West,279,1.0,5.0,17,0.00,,,0.00,838.0,meteohub,2013-02-18 18:25:00,
2013-02-18 11:30:00,64.2,15.6,30.09,WNW,284,1.0,5.0,15,0.00,,,0.00,587.0,meteohub,2013-02-18 18:30:00,
2013-02-18 11:35:00,64.9,17.6,30.08,SSW,209,1.0,5.0,16,0.00,,,0.00,578.0,meteohub,2013-02-18 18:35:00,
2013-02-18 11:40:00,65.1,14.7,30.08,SE,130,2.0,5.0,14,0.00,,,0.00,686.0,meteohub,2013-02-18 18:40:00,
2013-02-18 11:45:00,65.5,13.3,30.08,NE,35,0.0,4.0,13,0.00,,,0.00,605.0,meteohub,2013-02-18 18:45:00,
2013-02-18 11:50:00,65.7,15.1,30.08,SSW,193,3.0,4.0,14,0.00,,,0.00,668.0,meteohub,2013-02-18 18:50:00,
2013-02-18 11:55:00,65.7,15.1,30.07,SW,221,2.0,3.0,14,0.00,,,0.00,745.0,meteohub,2013-02-18 18:55:00,
2013-02-18 12:00:00,65.8,15.3,30.07,WNW,302,1.0,5.0,14,0.00,,,0.00,798.0,meteohub,2013-02-18 19:00:00,
2013-02-18 12:05:00,66.2,13.8,30.07,SSE,157,2.0,5.0,13,0.00,,,0.00,891.0,meteohub,2013-02-18 19:05:00,
2013-02-18 12:10:00,66.6,12.4,30.07,SSE,150,0.0,5.0,12,0.00,,,0.00,770.0,meteohub,2013-02-18 19:10:00,
2013-02-18 12:15:00,66.6,12.4,30.07,North,355,2.0,5.0,12,0.00,,,0.00,761.0,meteohub,2013-02-18 19:15:00,
2013-02-18 12:20:00,66.6,12.4,30.06,WSW,248,4.0,6.0,12,0.00,,,0.00,661.0,meteohub,2013-02-18 19:20:00,
2013-02-18 12:25:00,66.6,12.4,30.06,SSE,148,3.0,6.0,12,0.00,,,0.00,751.0,meteohub,2013-02-18 19:25:00,
2013-02-18 12:30:00,66.6,12.4,30.05,SSE,167,2.0,6.0,12,0.00,,,0.00,766.0,meteohub,2013-02-18 19:30:00,
2013-02-18 12:35:00,67.5,11.1,30.05,WNW,292,2.0,8.0,11,0.00,,,0.00,962.0,meteohub,2013-02-18 19:35:00,
2013-02-18 12:40:00,67.8,9.3,30.05,NW,305,2.0,8.0,10,0.00,,,0.00,821.0,meteohub,2013-02-18 19:40:00,
2013-02-18 12:45:00,67.5,9.0,30.04,WSW,254,1.0,6.0,10,0.00,,,0.00,791.0,meteohub,2013-02-18 19:45:00,
2013-02-18 12:50:00,67.3,12.9,30.04,SSW,213,3.0,6.0,12,0.00,,,0.00,691.0,meteohub,2013-02-18 19:50:00,
2013-02-18 12:55:00,67.5,11.1,30.04,SW,223,2.0,6.0,11,0.00,,,0.00,497.0,meteohub,2013-02-18 19:55:00,
2013-02-18 13:00:00,67.5,11.1,30.04,SW,225,2.0,4.0,11,0.00,,,0.00,469.0,meteohub,2013-02-18 20:00:00,
2013-02-18 13:05:00,67.5,11.1,30.03,WSW,242,0.0,5.0,11,0.00,,,0.00,531.0,meteohub,2013-02-18 20:05:00,
2013-02-18 13:11:00,67.8,11.3,30.03,SSW,205,2.0,5.0,11,0.00,,,0.00,608.0,meteohub,2013-02-18 20:11:00,
2013-02-18 13:16:00,68.2,11.7,30.02,WSW,241,2.0,5.0,11,0.00,,,0.00,563.0,meteohub,2013-02-18 20:16:00,
2013-02-18 13:21:00,68.0,11.5,30.02,ESE,113,3.0,5.0,11,0.00,,,0.00,504.0,meteohub,2013-02-18 20:21:00,
2013-02-18 13:26:00,67.8,11.3,30.02,SE,141,2.0,5.0,11,0.00,,,0.00,527.0,meteohub,2013-02-18 20:26:00,
2013-02-18 13:31:00,68.0,11.5,30.01,SE,142,1.0,5.0,11,0.00,,,0.00,533.0,meteohub,2013-02-18 20:31:00,
2013-02-18 13:36:00,68.2,11.7,30.01,WNW,301,2.0,5.0,11,0.00,,,0.00,821.0,meteohub,2013-02-18 20:36:00,
2013-02-18 13:41:00,68.2,11.7,30.01,NNW,337,3.0,6.0,11,0.00,,,0.00,631.0,meteohub,2013-02-18 20:41:00,
2013-02-18 13:46:00,68.5,11.8,30.00,NNW,347,2.0,6.0,11,0.00,,,0.00,814.0,meteohub,2013-02-18 20:46:00,
2013-02-18 13:51:00,68.7,12.0,30.00,North,11,1.0,6.0,11,0.00,,,0.00,765.0,meteohub,2013-02-18 20:51:00,
2013-02-18 13:56:00,69.1,10.2,29.99,WNW,296,4.0,6.0,10,0.00,,,0.00,719.0,meteohub,2013-02-18 20:56:00,
2013-02-18 14:01:00,68.5,11.8,29.99,WNW,296,4.0,9.0,11,0.00,,,0.00,534.0,meteohub,2013-02-18 21:01:00,
2013-02-18 14:06:00,68.5,11.8,29.99,NW,311,3.0,9.0,11,0.00,,,0.00,677.0,meteohub,2013-02-18 21:06:00,
2013-02-18 14:11:00,69.3,12.6,29.99,NNW,332,1.0,9.0,11,0.00,,,0.00,956.0,meteohub,2013-02-18 21:11:00,
2013-02-18 14:16:00,70.2,11.1,29.99,SW,217,3.0,6.0,10,0.00,,,0.00,977.0,meteohub,2013-02-18 21:16:00,
2013-02-18 14:21:00,71.1,9.3,29.98,NW,325,3.0,5.0,9,0.00,,,0.00,831.0,meteohub,2013-02-18 21:21:00,
2013-02-18 14:26:00,70.9,9.1,29.98,West,266,3.0,6.0,9,0.00,,,0.00,679.0,meteohub,2013-02-18 21:26:00,
2013-02-18 14:31:00,70.5,9.0,29.98,WSW,257,2.0,6.0,9,0.00,,,0.00,547.0,meteohub,2013-02-18 21:31:00,
2013-02-18 14:37:00,70.5,11.3,29.98,WSW,244,3.0,7.0,10,0.00,,,0.00,536.0,meteohub,2013-02-18 21:37:00,
2013-02-18 14:42:00,70.3,11.1,29.98,WSW,247,3.0,8.0,10,0.00,,,0.00,397.0,meteohub,2013-02-18 21:42:00,
2013-02-18 14:47:00,69.8,10.8,29.98,West,265,5.0,8.0,10,0.00,,,0.00,394.0,meteohub,2013-02-18 21:47:00,
2013-02-18 14:52:00,69.6,12.7,29.97,West,260,3.0,8.0,11,0.00,,,0.00,422.0,meteohub,2013-02-18 21:52:00,
2013-02-18 14:57:00,69.3,12.6,29.97,West,259,2.0,8.0,11,0.00,,,0.00,338.0,meteohub,2013-02-18 21:57:00,
2013-02-18 15:02:00,68.9,12.2,29.97,WSW,238,3.0,7.0,11,0.00,,,0.00,454.0,meteohub,2013-02-18 22:02:00,
2013-02-18 15:07:00,68.7,12.0,29.97,West,271,1.0,8.0,11,0.00,,,0.00,383.0,meteohub,2013-02-18 22:07:00,
2013-02-18 15:12:00,68.5,13.8,29.98,WNW,298,3.0,8.0,12,0.00,,,0.00,320.0,meteohub,2013-02-18 22:12:00,
2013-02-18 15:17:00,68.7,14.0,29.98,West,267,4.0,8.0,12,0.00,,,0.00,315.0,meteohub,2013-02-18 22:17:00,
2013-02-18 15:22:00,68.7,14.0,29.98,SW,216,4.0,7.0,12,0.00,,,0.00,350.0,meteohub,2013-02-18 22:22:00,
2013-02-18 15:27:00,68.5,11.8,29.97,SW,221,4.0,7.0,11,0.00,,,0.00,346.0,meteohub,2013-02-18 22:27:00,
2013-02-18 15:32:00,68.4,11.8,29.98,SW,227,3.0,7.0,11,0.00,,,0.00,327.0,meteohub,2013-02-18 22:32:00,
2013-02-18 15:37:00,68.4,11.8,29.98,SW,225,3.0,7.0,11,0.00,,,0.00,345.0,meteohub,2013-02-18 22:37:00,
2013-02-18 15:42:00,68.5,13.8,29.97,West,263,3.0,7.0,12,0.00,,,0.00,348.0,meteohub,2013-02-18 22:42:00,
2013-02-18 15:47:00,68.4,11.8,29.97,West,271,2.0,6.0,11,0.00,,,0.00,352.0,meteohub,2013-02-18 22:47:00,
2013-02-18 15:52:00,68.4,13.8,29.97,West,272,1.0,6.0,12,0.00,,,0.00,244.0,meteohub,2013-02-18 22:52:00,
2013-02-18 15:57:00,68.2,13.6,29.97,West,273,2.0,5.0,12,0.00,,,0.00,232.0,meteohub,2013-02-18 22:57:00,
2013-02-18 16:02:00,68.2,13.6,29.97,West,273,0.0,4.0,12,0.00,,,0.00,229.0,meteohub,2013-02-18 23:02:00,
2013-02-18 16:07:00,68.2,13.6,29.97,West,273,1.0,3.0,12,0.00,,,0.00,200.0,meteohub,2013-02-18 23:07:00,
2013-02-18 16:12:00,68.2,13.6,29.97,WNW,284,2.0,3.0,12,0.00,,,0.00,190.0,meteohub,2013-02-18 23:12:00,
2013-02-18 16:17:00,67.8,13.3,29.97,WNW,283,1.0,4.0,12,0.00,,,0.00,174.0,meteohub,2013-02-18 23:17:00,
2013-02-18 16:22:00,67.6,13.3,29.97,WSW,247,1.0,4.0,12,0.00,,,0.00,162.0,meteohub,2013-02-18 23:22:00,
2013-02-18 16:27:00,67.6,13.3,29.97,SW,223,1.0,4.0,12,0.00,,,0.00,155.0,meteohub,2013-02-18 23:27:00,
2013-02-18 16:33:00,67.5,13.1,29.96,SW,223,1.0,4.0,12,0.00,,,0.00,153.0,meteohub,2013-02-18 23:33:00,
2013-02-18 16:38:00,67.5,13.1,29.96,SW,223,1.0,4.0,12,0.00,,,0.00,149.0,meteohub,2013-02-18 23:38:00,
2013-02-18 16:43:00,67.3,12.9,29.96,SW,223,2.0,4.0,12,0.00,,,0.00,162.0,meteohub,2013-02-18 23:43:00,
2013-02-18 16:48:00,67.5,13.1,29.96,SW,223,1.0,2.0,12,0.00,,,0.00,171.0,meteohub,2013-02-18 23:48:00,
2013-02-18 16:53:00,67.5,14.9,29.96,SW,223,1.0,2.0,13,0.00,,,0.00,146.0,meteohub,2013-02-18 23:53:00,
2013-02-18 16:58:00,67.5,13.1,29.96,SW,223,0.0,2.0,12,0.00,,,0.00,141.0,meteohub,2013-02-18 23:58:00,
2013-02-18 17:03:00,67.5,14.9,29.95,SW,223,1.0,2.0,13,0.00,,,0.00,121.0,meteohub,2013-02-19 00:03:00,
2013-02-18 17:08:00,67.5,14.9,29.96,SW,223,1.0,2.0,13,0.00,,,0.00,121.0,meteohub,2013-02-19 00:08:00,
2013-02-18 17:13:00,67.5,13.1,29.95,SW,223,0.0,2.0,12,0.00,,,0.00,102.0,meteohub,2013-02-19 00:13:00,
2013-02-18 17:18:00,67.3,14.7,29.96,SW,223,1.0,2.0,13,0.00,,,0.00,90.0,meteohub,2013-02-19 00:18:00,
2013-02-18 17:23:00,67.1,16.3,29.95,SW,219,1.0,2.0,14,0.00,,,0.00,67.0,meteohub,2013-02-19 00:23:00,
2013-02-18 17:28:00,66.7,16.0,29.95,SW,219,0.0,2.0,14,0.00,,,0.00,56.0,meteohub,2013-02-19 00:28:00,
2013-02-18 17:33:00,66.6,15.8,29.94,SW,219,1.0,2.0,14,0.00,,,0.00,44.0,meteohub,2013-02-19 00:33:00,
2013-02-18 17:38:00,66.2,18.7,29.95,SW,219,0.0,2.0,16,0.00,,,0.00,30.0,meteohub,2013-02-19 00:38:00,
2013-02-18 17:43:00,65.8,16.9,29.95,SW,219,0.0,1.0,15,0.00,,,0.00,25.0,meteohub,2013-02-19 00:43:00,
2013-02-18 17:48:00,65.5,18.1,29.95,SW,219,0.0,1.0,16,0.00,,,0.00,19.0,meteohub,2013-02-19 00:48:00,
2013-02-18 17:53:00,65.1,20.5,29.95,SW,219,0.0,1.0,18,0.00,,,0.00,23.0,meteohub,2013-02-19 00:53:00,
2013-02-18 17:58:00,64.8,21.6,29.95,SW,219,0.0,0.0,19,0.00,,,0.00,16.0,meteohub,2013-02-19 00:58:00,
2013-02-18 18:04:00,64.0,21.0,29.95,SW,219,0.0,1.0,19,0.00,,,0.00,18.0,meteohub,2013-02-19 01:04:00,
2013-02-18 18:09:00,63.7,21.9,29.95,SW,219,0.0,1.0,20,0.00,,,0.00,19.0,meteohub,2013-02-19 01:09:00,
2013-02-18 18:14:00,63.1,23.7,29.95,SW,219,1.0,1.0,22,0.00,,,0.00,9.0,meteohub,2013-02-19 01:14:00,
2013-02-18 18:19:00,62.4,25.2,29.95,SW,219,1.0,2.0,24,0.00,,,0.00,5.0,meteohub,2013-02-19 01:19:00,
2013-02-18 18:24:00,61.7,24.6,29.95,SW,219,0.0,2.0,24,0.00,,,0.00,0.0,meteohub,2013-02-19 01:24:00,
2013-02-18 18:29:00,61.0,23.9,29.96,SW,219,0.0,2.0,24,0.00,,,0.00,0.0,meteohub,2013-02-19 01:29:00,
2013-02-18 18:34:00,60.4,26.2,29.96,SW,219,0.0,2.0,27,0.00,,,0.00,0.0,meteohub,2013-02-19 01:34:00,
2013-02-18 18:39:00,59.7,25.7,29.96,SW,219,0.0,1.0,27,0.00,,,0.00,0.0,meteohub,2013-02-19 01:39:00,
2013-02-18 18:44:00,58.8,25.7,29.96,SW,219,1.0,3.0,28,0.00,,,0.00,0.0,meteohub,2013-02-19 01:44:00,
2013-02-18 18:49:00,58.3,25.3,29.96,SW,219,0.0,3.0,28,0.00,,,0.00,0.0,meteohub,2013-02-19 01:49:00,
2013-02-18 18:54:00,57.7,25.7,29.96,SW,219,0.0,3.0,29,0.00,,,0.00,0.0,meteohub,2013-02-19 01:54:00,
2013-02-18 18:59:00,57.2,26.1,29.96,SW,219,0.0,1.0,30,0.00,,,0.00,0.0,meteohub,2013-02-19 01:59:00,
2013-02-18 19:04:00,56.8,23.2,29.96,SW,219,0.0,1.0,27,0.00,,,0.00,0.0,meteohub,2013-02-19 02:04:00,
2013-02-18 19:09:00,56.5,24.6,29.96,SW,219,0.0,1.0,29,0.00,,,0.00,0.0,meteohub,2013-02-19 02:09:00,
2013-02-18 19:14:00,56.1,23.4,29.96,SW,219,1.0,1.0,28,0.00,,,0.00,0.0,meteohub,2013-02-19 02:14:00,
2013-02-18 19:19:00,55.8,23.9,29.96,SW,219,0.0,1.0,29,0.00,,,0.00,0.0,meteohub,2013-02-19 02:19:00,
2013-02-18 19:24:00,55.4,23.7,29.96,SW,219,0.0,2.0,29,0.00,,,0.00,0.0,meteohub,2013-02-19 02:24:00,
2013-02-18 19:29:00,55.0,24.1,29.96,SW,219,1.0,2.0,30,0.00,,,0.00,0.0,meteohub,2013-02-19 02:29:00,
2013-02-18 19:34:00,54.7,24.6,29.96,SW,219,0.0,1.0,31,0.00,,,0.00,0.0,meteohub,2013-02-19 02:34:00,
2013-02-18 19:39:00,54.1,24.1,29.96,SW,219,0.0,2.0,31,0.00,,,0.00,0.0,meteohub,2013-02-19 02:39:00,
2013-02-18 19:44:00,53.8,27.5,29.96,SW,219,0.0,2.0,36,0.00,,,0.00,0.0,meteohub,2013-02-19 02:44:00,
2013-02-18 19:49:00,53.2,23.4,29.95,SW,219,0.0,1.0,31,0.00,,,0.00,0.0,meteohub,2013-02-19 02:49:00,
2013-02-18 19:54:00,53.2,24.1,29.96,SW,219,0.0,1.0,32,0.00,,,0.00,0.0,meteohub,2013-02-19 02:54:00,
2013-02-18 19:59:00,53.1,24.8,29.96,SW,219,0.0,1.0,33,0.00,,,0.00,0.0,meteohub,2013-02-19 02:59:00,
2013-02-18 20:05:00,52.9,23.9,29.96,SW,219,1.0,1.0,32,0.00,,,0.00,0.0,meteohub,2013-02-19 03:05:00,
2013-02-18 20:10:00,52.5,23.5,29.96,SW,219,1.0,3.0,32,0.00,,,0.00,0.0,meteohub,2013-02-19 03:10:00,
2013-02-18 20:15:00,53.1,21.6,29.96,SW,219,1.0,3.0,29,0.00,,,0.00,0.0,meteohub,2013-02-19 03:15:00,
2013-02-18 20:20:00,53.2,23.4,29.96,SW,219,0.0,2.0,31,0.00,,,0.00,0.0,meteohub,2013-02-19 03:20:00,
2013-02-18 20:25:00,53.1,23.9,29.96,SW,219,0.0,2.0,32,0.00,,,0.00,0.0,meteohub,2013-02-19 03:25:00,
2013-02-18 20:30:00,52.3,25.5,29.96,SW,219,1.0,2.0,35,0.00,,,0.00,0.0,meteohub,2013-02-19 03:30:00,
2013-02-18 20:35:00,51.6,24.8,29.96,SW,219,0.0,2.0,35,0.00,,,0.00,0.0,meteohub,2013-02-19 03:35:00,
2013-02-18 20:40:00,50.9,24.8,29.96,SW,219,0.0,2.0,36,0.00,,,0.00,0.0,meteohub,2013-02-19 03:40:00,
2013-02-18 20:45:00,50.4,23.0,29.96,SW,219,1.0,1.0,34,0.00,,,0.00,0.0,meteohub,2013-02-19 03:45:00,
2013-02-18 20:50:00,50.2,22.8,29.96,SW,219,1.0,1.0,34,0.00,,,0.00,0.0,meteohub,2013-02-19 03:50:00,
2013-02-18 20:55:00,50.2,25.0,29.96,SW,219,1.0,1.0,37,0.00,,,0.00,0.0,meteohub,2013-02-19 03:55:00,
2013-02-18 21:00:00,49.8,24.6,29.96,SW,219,0.0,1.0,37,0.00,,,0.00,0.0,meteohub,2013-02-19 04:00:00,
2013-02-18 21:05:00,49.5,23.5,29.96,SW,219,1.0,1.0,36,0.00,,,0.00,0.0,meteohub,2013-02-19 04:05:00,
2013-02-18 21:11:00,48.9,25.7,29.96,SW,219,0.0,1.0,40,0.00,,,0.00,0.0,meteohub,2013-02-19 04:11:00,
2013-02-18 21:16:00,48.4,26.4,29.96,SW,219,0.0,1.0,42,0.00,,,0.00,0.0,meteohub,2013-02-19 04:16:00,
2013-02-18 21:21:00,47.8,24.1,29.96,SW,219,0.0,1.0,39,0.00,,,0.00,0.0,meteohub,2013-02-19 04:21:00,
2013-02-18 21:26:00,47.7,25.7,29.97,SW,219,0.0,1.0,42,0.00,,,0.00,0.0,meteohub,2013-02-19 04:26:00,
2013-02-18 21:31:00,47.5,25.5,29.97,SW,219,0.0,1.0,42,0.00,,,0.00,0.0,meteohub,2013-02-19 04:31:00,
2013-02-18 21:36:00,47.1,25.2,29.97,SW,219,0.0,2.0,42,0.00,,,0.00,0.0,meteohub,2013-02-19 04:36:00,
2013-02-18 21:41:00,46.9,25.0,29.97,SW,219,2.0,2.0,42,0.00,,,0.00,0.0,meteohub,2013-02-19 04:41:00,
2013-02-18 21:46:00,46.8,23.7,29.97,SW,219,1.0,2.0,40,0.00,,,0.00,0.0,meteohub,2013-02-19 04:46:00,
2013-02-18 21:51:00,46.9,24.4,29.97,SW,219,1.0,2.0,41,0.00,,,0.00,0.0,meteohub,2013-02-19 04:51:00,
2013-02-18 21:56:00,46.9,25.0,29.97,SW,219,0.0,3.0,42,0.00,,,0.00,0.0,meteohub,2013-02-19 04:56:00,
2013-02-18 22:00:00,46.8,26.1,29.97,SW,219,0.0,3.0,44,0.00,,,0.00,0.0,meteohub,2013-02-19 05:00:00,
2013-02-18 22:02:00,46.8,26.1,29.97,SW,219,2.0,3.0,44,0.00,,,0.00,0.0,meteohub,2013-02-19 05:02:00,
2013-02-18 22:07:00,46.4,26.2,29.97,SW,219,1.0,3.0,45,0.00,,,0.00,0.0,meteohub,2013-02-19 05:07:00,
2013-02-18 22:12:00,46.0,25.9,29.97,SW,219,0.0,3.0,45,0.00,,,0.00,0.0,meteohub,2013-02-19 05:12:00,
2013-02-18 22:17:00,45.9,25.2,29.97,SW,219,0.0,3.0,44,0.00,,,0.00,0.0,meteohub,2013-02-19 05:17:00,
2013-02-18 22:22:00,45.7,25.5,29.97,SW,219,0.0,2.0,45,0.00,,,0.00,0.0,meteohub,2013-02-19 05:22:00,
2013-02-18 22:27:00,45.7,26.1,29.98,SW,219,1.0,2.0,46,0.00,,,0.00,0.0,meteohub,2013-02-19 05:27:00,
2013-02-18 22:32:00,45.7,25.5,29.98,SW,219,0.0,2.0,45,0.00,,,0.00,0.0,meteohub,2013-02-19 05:32:00,
2013-02-18 22:37:00,45.7,26.1,29.98,SW,219,1.0,2.0,46,0.00,,,0.00,0.0,meteohub,2013-02-19 05:37:00,
2013-02-18 22:42:00,45.7,26.1,29.98,SW,219,0.0,2.0,46,0.00,,,0.00,0.0,meteohub,2013-02-19 05:42:00,
2013-02-18 22:47:00,45.5,24.8,29.98,SW,219,0.0,2.0,44,0.00,,,0.00,0.0,meteohub,2013-02-19 05:47:00,
2013-02-18 22:52:00,45.3,25.7,29.98,SW,219,1.0,1.0,46,0.00,,,0.00,0.0,meteohub,2013-02-19 05:52:00,
2013-02-18 22:57:00,45.3,25.7,29.98,SW,219,1.0,1.0,46,0.00,,,0.00,0.0,meteohub,2013-02-19 05:57:00,
2013-02-18 23:02:00,45.0,25.9,29.97,SW,219,1.0,2.0,47,0.00,,,0.00,0.0,meteohub,2013-02-19 06:02:00,
2013-02-18 23:07:00,44.4,27.0,29.97,SW,219,0.0,2.0,50,0.00,,,0.00,0.0,meteohub,2013-02-19 06:07:00,
2013-02-18 23:12:00,44.4,23.9,29.97,SW,219,1.0,2.0,44,0.00,,,0.00,0.0,meteohub,2013-02-19 06:12:00,
2013-02-18 23:17:00,45.1,23.9,29.97,SW,219,1.0,2.0,43,0.00,,,0.00,0.0,meteohub,2013-02-19 06:17:00,
2013-02-18 23:22:00,45.7,23.4,29.97,SW,219,1.0,2.0,41,0.00,,,0.00,0.0,meteohub,2013-02-19 06:22:00,
2013-02-18 23:27:00,46.0,24.3,29.97,SW,219,0.0,2.0,42,0.00,,,0.00,0.0,meteohub,2013-02-19 06:27:00,
2013-02-18 23:32:00,45.9,23.5,29.97,SW,219,1.0,2.0,41,0.00,,,0.00,0.0,meteohub,2013-02-19 06:32:00,
2013-02-18 23:37:00,45.7,23.9,29.97,SW,219,0.0,2.0,42,0.00,,,0.00,0.0,meteohub,2013-02-19 06:37:00,
2013-02-18 23:42:00,45.9,22.8,29.97,SW,219,1.0,1.0,40,0.00,,,0.00,0.0,meteohub,2013-02-19 06:42:00,
2013-02-18 23:47:00,45.7,23.4,29.96,SW,219,0.0,2.0,41,0.00,,,0.00,0.0,meteohub,2013-02-19 06:47:00,
2013-02-18 23:52:00,45.3,24.1,29.96,SW,219,0.0,2.0,43,0.00,,,0.00,0.0,meteohub,2013-02-19 06:52:00,
2013-02-18 23:57:00,44.8,23.7,29.96,SW,219,0.0,1.0,43,0.00,,,0.00,0.0,meteohub,2013-02-19 06:57:00,